カタログに戻る

OPS 4682 DEB

運用中PO
NORAD 14515·DEBRIS·🇺🇸 United States

打ち上げ Apr 3, 1965 から Vandenberg Space Force Base

Loading…

次のパス (今後24時間)

TLE

最新Source: Space-Track

元期: Sep 13, 2026, 14:01 UTC

1 14515U 65027M   26256.58469970 -.00000195  00000-0 -69750-3 0  9992
2 14515  90.2516  10.0995 0030879 188.7687 171.2898 12.97426796595779

AllMySatでOPS 4682 DEBをリアルタイム追跡

Download on the App Store